Regional Weather Roundup
Issued by NWS

Home | Current Version | Previous Version | Text Only | Print | Product List | Glossary Off
Versions: 1 2 3 4 5 6 7 8 9 10 11 12 13 14 15 16 17 18 19 20 21 22 23 24 25 26 27 28 29 30 31 32 33 34 35 36 37 38 39 40 41 42 43 44 45 46 47 48 49 50

000
ASUS43 KLOT 250203
RWRIL

ILLINOIS REGIONAL WEATHER ROUNDUP
NATIONAL WEATHER SERVICE CHICAGO/ROMEOVILLE IL
900 PM CDT THU MAY 24 2018

NOTE: "FAIR" INDICATES FEW OR NO CLOUDS BELOW 12,000 FEET WITH NO
SIGNIFICANT WEATHER AND/OR OBSTRUCTIONS TO VISIBILITY.

* THESE STATIONS ARE NOT UNDER NWS QUALITY CONTROL. THEY ALSO MAY NOT
  REPORT WEATHER SUCH AS PRECIPITATION OR FOG.

ILZ001-002-007-009-015-016-024-250300-
NORTHWEST ILLINOIS

CITY           SKY/WX    TMP DP  RH WIND       PRES   REMARKS
MOLINE         FAIR      77  62  59 S6        29.99R
STERLING*      FAIR      79  61  53 SE5       30.01S HX  80
SAVANNA*       FAIR      77  63  61 S6        29.99R
$$

ILZ003-004-008-010-011-017-018-250300-
NORTH CENTRAL ILLINOIS

CITY           SKY/WX    TMP DP  RH WIND       PRES   REMARKS
ROCKFORD       FAIR      74  61  63 SE3       30.02S
FREEPORT*      FAIR      72  61  67 S7        30.02S
ROCHELLE*      FAIR      74  62  66 S5        30.02S
DE KALB*       FAIR      74  58  57 SE6       30.04S
$$

ILZ005-006-012>014-019>023-250300-
NORTHEAST ILLINOIS

CITY           SKY/WX    TMP DP  RH WIND       PRES   REMARKS
CHICAGO-OHARE  FAIR      75  52  44 SE8       30.02S
CHICAGO-MIDWAY FAIR      76  53  44 E9        30.03S
AURORA         FAIR      76  60  57 SE3       30.02S
LANSING*       FAIR      74  59  58 E5        30.04S
JOLIET*        FAIR      72  61  69 E3        30.02S
WAUKEGAN       FAIR      67  52  58 SE5       30.03S
DUPAGE AIRPORT FAIR      74  62  66 CALM      30.02S
KANKAKEE*      FAIR      76  51  42 SE5       30.05R
WHEELING       FAIR      76  54  46 SE3       30.04S
MORRIS*        FAIR      78  56  47 SE7       30.01S
NORTHERLY ISL    N/A     65  52  62 S1          N/A
$$

LMZ740>746-250300-
SOUTHERN LAKE MICHIGAN

STATION/POSITION SKY/WX   TEMP    WIND        PRES    VSBY  WAVE
                          AIR SEA DIR/SP/G                  HT/PER
                          (F)     (DEG/KT/KT) (MB)    (MI)  (FT/S)
SOUTHERN BUOY              57 40  140/  8/  8 1017.4F         0
WILMETTE HARBOR            61 55  150/  8/  8   N/A           1
HARRISON CRIB              64     140/  8/ 10   N/A
BURNHAM HARBOR             64     170/  2/  3   N/A
CALUMET HARBOR             67     110/  8/ 10 1016.9R
BURNS HARBOR               65      90/  4/  8 1017.9R
MICHIGAN CITY              74      90/  4/  5   N/A
MICHIGAN CITY 6N           64 59   90/  6/  8   N/A           0
ST. JOSEPH                 67 59  110/  6/  6 1017.6F         0
$$

ILZ025>027-034>036-040-047-049-050-058-095>099-250300-
WEST-CENTRAL ILLINOIS

CITY           SKY/WX    TMP DP  RH WIND       PRES   REMARKS
QUINCY         CLEAR     78  59  51 SE6       30.01R
GALESBURG*     FAIR      78  58  50 E3        30.02S
MACOMB*        CLEAR     74  59  59 S5        30.03S
JACKSONVILLE*  CLEAR     78  60  53 S3        30.02S HX  80
PITTSFIELD*    CLEAR     77  65  65 CALM      30.03S
$$

ILZ028>032-037-038-041>044-048-051>054-059>061-250300-
CENTRAL ILLINOIS

CITY           SKY/WX    TMP DP  RH WIND       PRES   REMARKS
BLOOMINGTON    FAIR      77  54  44 SE8       30.05R
DECATUR        FAIR      76  55  48 S6        30.04R
PEORIA         FAIR      77  61  57 CALM      30.02R HAZE
LACON*         FAIR      74  60  61 CALM      30.00S
LINCOLN*       FAIR      80  57  46 CALM      30.02S HX  80
SPRINGFIELD    FAIR      76  58  53 SE6       30.03R
TAYLORVILLE    NOT AVBL
$$

ILZ033-039-045-046-055>057-062-063-250300-
EAST-CENTRAL ILLINOIS

CITY           SKY/WX    TMP DP  RH WIND       PRES   REMARKS
CHAMPAIGN      FAIR      75  53  46 E7        30.05R
DANVILLE*      FAIR      73  55  51 S3        30.04R
RANTOUL*       FAIR      78  55  44 SE5       30.05S
MATTOON        FAIR      72  62  71 S3        30.04R
$$

ILZ079-100>102-250300-
SOUTHWEST ILLINOIS

CITY           SKY/WX    TMP DP  RH WIND       PRES   REMARKS
ALTON          CLEAR     73  64  73 SE6       30.03S
BELLEVILLE     CLEAR     77  65  65 CALM      30.01S
CAHOKIA*       CLEAR     78  61  55 S3        30.02R HX  80
SPARTA*        CLEAR     77  64  63 SE3       30.04S
$$

ILZ064>066-069>071-074>076-080>082-084>086-088>090-092>094-250300-
SOUTH-CENTRAL ILLINOIS

CITY           SKY/WX    TMP DP  RH WIND       PRES   REMARKS
CARBONDALE     FAIR      74  63  68 CALM      30.03S
CAIRO*         FAIR      79  65  62 E3        30.02S HX  80
EFFINGHAM*     FAIR      72  60  66 CALM      30.06R
MT. VERNON     FAIR      67  62  84 CALM      30.04S
CENTRALIA*     CLEAR     74  65  71 CALM      30.03S
SALEM*         FAIR      75  58  53 CALM      30.03S
METROPOLIS*    FAIR      74  66  76 CALM      30.04S
$$

ILZ067-068-072-073-078-083-087-091-250300-
SOUTHEAST ILLINOIS

CITY           SKY/WX    TMP DP  RH WIND       PRES   REMARKS
LAWRENCEVILLE  FAIR      77  55  46 E6        30.04S
FLORA*         FAIR      76  60  56 CALM      30.04S
FAIRFIELD*     FAIR      73  58  58 CALM      30.03S
HARRISBURG*    FAIR      73  64  73 CALM      30.04S
ROBINSON*      FAIR      68  58  70 SE3       30.06R
CARMI*         FAIR      73  62  70 E6        30.03S
$$

ABBREVIATIONS USED IN REMARKS
   TC - TEMPERATURE IN CELSIUS
  WCI - WIND CHILL INDEX
   HX - HEAT INDEX
  VSB - VISIBILITY
$$





USA.gov is the U.S. government's official web portal to all federal, state and local government web resources and services.